Regional Weather Roundup
Issued by NWS

Home | Current Version | Previous Version | Text Only | Print | Product List | Glossary Off
Versions: 1 2 3 4 5 6 7 8 9 10 11 12 13 14 15 16 17 18 19 20 21 22 23 24 25 26 27 28 29 30 31 32 33 34 35 36 37 38 39 40 41 42 43 44 45 46 47 48 49 50

000
ASUS43 KLMK 280210
RWRKY
KENTUCKY REGIONAL WEATHER ROUNDUP
NATIONAL WEATHER SERVICE LOUISVILLE KY
900 PM EST SAT DEC 27 2014

NOTE "FAIR" INDICATES FEW OR NO CLOUDS BELOW 12,000 FEET
WITH NO SIGNIFICANT WEATHER AND/OR OBSTRUCTIONS TO VISIBILITY.

KYZ001>023-026-027-061>063-070>075-280300-
WESTERN AND SOUTH CENTRAL KENTUCKY

CITY           SKY/WX    TMP DP  RH WIND       PRES   REMARKS
PADUCAH        LGT RAIN  43  41  93 NW14      30.18R FOG
HENDERSON      CLOUDY    43  39  87 NW10G22   30.13R
OWENSBORO      LGT RAIN  48  48 100 W5        30.11S FOG
HOPKINSVILLE   CLOUDY    48  48 100 W2        30.11R FOG
BOWLING GREEN  CLOUDY    49  46  90 SW5       30.11F
GLASGOW        CLOUDY    48  48 100 CALM      30.09F
$$

KYZ024-025-028>034-038-045-046-053-280300-
NORTH CENTRAL KENTUCKY

CITY           SKY/WX    TMP DP  RH WIND       PRES   REMARKS
LOUISVILLE/SDF CLOUDY    49  47  93 SW7       30.09R
LOUISVILLE/LOU CLOUDY    49  47  93 CALM      30.09R
FORT KNOX      CLOUDY    48  46  93 SW6       30.08R FOG
$$

KYZ035>037-039>044-047>052-055>060-089>105-280300-
NORTHEAST KENTUCKY

CITY           SKY/WX    TMP DP  RH WIND       PRES   REMARKS
LEXINGTON      CLOUDY    46  45  96 S6        30.07F
COVINGTON      CLOUDY    48  43  82 SW8       30.06F
FRANKFORT      CLOUDY    47  45  93 SW3       30.05F
$$

KYZ054-064>069-076>088-106>120-280300-
SOUTHEAST KENTUCKY

CITY           SKY/WX    TMP DP  RH WIND       PRES   REMARKS
JACKSON        CLOUDY    49  40  71 SW5       30.12F
LONDON         CLOUDY    48  42  80 S6        30.13F
SOMERSET       CLOUDY    45  45 100 S5        30.14F
MIDDLESBORO    CLOUDY    46  46  98 CALM      30.15F
MONTICELLO     CLOUDY    48  46  93 S6        30.15F
$$



USA.gov is the U.S. government's official web portal to all federal, state and local government web resources and services.